Вернуться в каталог

COSMOS 397 DEB *

АктивенLEO
NORAD 5763·DEBRIS·🇷🇺 Russia

Запущен Feb 25, 1971 с Baikonur Cosmodrome

Loading…

Ближайшие Пролёты (ближайшие 24 часа)

TLE

СвежийSource: Space-Track

Эпоха: Sep 13, 2026, 11:24 UTC

1 05763U 71015CF  26256.47567725  .00001160  00000-0  14652-2 0  9997
2 05763  66.8984  73.9175 0368353 196.3326 162.5600 13.41898591664728

Отслеживайте COSMOS 397 DEB * в реальном времени с AllMySat

Download on the App Store